Regional Weather Roundup
Issued by NWS

Home | Current Version | Previous Version | Graphics & Text | Print | Product List | Glossary Off
Versions: 1 2 3 4 5 6 7 8 9 10 11 12 13 14 15 16 17 18 19 20 21 22 23 24 25 26 27

000
ASUS45 KPSR 210810
RWRAZ

ARIZONA HOURLY REGIONAL WEATHER ROUNDUP
NATIONAL WEATHER SERVICE PHOENIX AZ
100 AM MST TUE NOV 21 2017

NOTE: FAIR INDICATES FEW OR NO CLOUDS BELOW 12,000 FEET WITH NO
SIGNIFICANT WEATHER AND/OR OBSTRUCTIONS TO VISIBILITY.

AZZ001>003-036-210900-
NORTHWEST ARIZONA

CITY           SKY/WX    TMP DP  RH WIND       PRES   REMARKS
BULLHEAD CITY  PTCLDY    64  10  12 N10       30.09S
KINGMAN        CLEAR     46  14  27 E6        30.17S
$$

AZZ004>008-015-016-018-210900-
NORTH CENTRAL ARIZONA

CITY           SKY/WX    TMP DP  RH WIND       PRES   REMARKS
GRAND CANYON   HAZE      28   2  32 CALM      30.27S VSB 1/4
WILLIAMS       PTCLDY    30  10  43 S9        30.26S WCI  22
PRESCOTT       PTCLDY    40  15  36 S7        30.19S
FLAGSTAFF      PTCLDY    30   7  37 CALM      30.25S
PAYSON         CLEAR     46  12  25 CALM      30.19F
PAGE           PTCLDY    41  16  36 CALM      30.21R
$$

AZZ009>014-017-210900-
NORTHEAST ARIZONA

CITY           SKY/WX    TMP DP  RH WIND       PRES   REMARKS
WINSLOW        PTCLDY    32   5  32 SW5       30.20S WCI  27
SAINT JOHNS    PTCLDY    37   4  25 S5        30.19S WCI  33
WINDOW ROCK    CLEAR     32   1  26 MISG      30.21F
SHOW LOW       CLEAR     36   9  32 CALM      30.23S
$$

AZZ540-542>544-546-548-210900-
GREATER PHOENIX AREA

CITY           SKY/WX    TMP DP  RH WIND       PRES   REMARKS
PHOENIX        MOCLDY    59  34  39 CALM      30.03R
BUCKEYE        CLEAR     59  18  20 N9        30.04S
LUKE AFB       CLEAR     57  28  33 CALM      30.02S
DEER VALLEY    CLEAR     57  23  26 NE6       30.04R
SCOTTSDALE     CLEAR     56  31  38 CALM      30.05S
MESA-GATEWAY   PTCLDY    50  21  32 SE5       30.05S
$$

AZZ539-553-210900-
SOUTHWEST MARICOPA COUNTY AND PINAL COUNTY

CITY           SKY/WX    TMP DP  RH WIND       PRES   REMARKS
CASA GRANDE    NOT AVBL
$$

AZZ503-504-507>509-210900-
SOUTHEAST ARIZONA

CITY           SKY/WX    TMP DP  RH WIND       PRES   REMARKS
TUCSON         CLEAR     54  24  31 SE6       30.10S
DAVIS-MONTHAN  PTCLDY    51  24  34 SE6       30.08S
NOGALES        CLEAR     47  23  38 CALM      30.13S
SIERRA VISTA   CLEAR     54  21  27 W13       30.16F
DOUGLAS        PTCLDY    41  18  39 CALM      30.13F
SAFFORD        PTCLDY    44  16  32 E3        30.08S
$$

AZZ532-210900-
SOUTHWEST ARIZONA

CITY           SKY/WX    TMP DP  RH WIND       PRES   REMARKS
YUMA           PTCLDY    64  13  13 N7        30.03S
$$

CAZ041-043-047-048-061-525>527-560>570-210900-
SOUTHERN CALIFORNIA

CITY           SKY/WX    TMP DP  RH WIND       PRES   REMARKS
DOWNTOWN L.A.  MOCLDY    61  45  55 CALM      30.02S
L.A. AIRPORT   MOCLDY    63  49  60 SE6       30.03R
SAN DIEGO      PTCLDY    59  46  62 CALM      30.03S
BURBANK        PTCLDY    60  41  49 CALM      30.03S
ONTARIO        MOCLDY    59  36  42 N3        30.04S
RIVERSIDE      MOCLDY    58  36  43 N7        30.04S
PALM SPRINGS   CLEAR     60  30  32 CALM      30.08F
EL CENTRO NAS  CLEAR     50  23  34 W8        30.06S
IMPERIAL       CLEAR     51  32  48 W7        30.04R
BLYTHE         PTCLDY    57   6  13 NW8       30.07R
NEEDLES        PTCLDY    58   8  13 N7        30.10R
$$

NVZ020-UTZ003-210900-
SOUTHERN NEVADA-UTAH

CITY           SKY/WX    TMP DP  RH WIND       PRES   REMARKS
LAS VEGAS      MOCLDY    51  14  22 S6        30.15S
SALT LAKE CITY CLOUDY    44  38  79 N7        30.17R
$$

NMZ009-TXZ055-210900-
NEW MEXICO-WEST TEXAS

CITY           SKY/WX    TMP DP  RH WIND       PRES   REMARKS
ALBUQUERQUE    CLOUDY    45   1  16 N6        30.11F
EL PASO        MOCLDY    53  21  28 E9        30.03S
$$


........................KEY........................
SKY/WX - SKY CONDITION/WEATHER
TMP    - TEMPERATURE IN FAHRENHEIT
DP     - DEW POINT IN FAHRENHEIT
RH     - RELATIVE HUMIDITY IN PERCENT
WIND   - DIRECTION AND SPEED IN MILES PER HOUR (MPH)
VRB    - VARIABLE WIND DIRECTION
PRES   - MEAN SEA LEVEL PRESSURE IN INCHES OF MERCURY
         F - FALLING PRESSURE   R - RISING PRESSURE
         S - STEADY PRESSURE
VSB    - VISIBILITY IN MILES
HX     - HEAT INDEX IN FAHRENHEIT
WCI    - WIND CHILL INDEX IN FAHRENHEIT
TC     - TEMPERATURE IN CELSIUS WHICH IS ALSO KNOWN AS
         TEMPERATURE IN CENTIGRADE
AFB    - AIR FORCE BASE
         LUKE AFB IS LUKE AIR FORCE BASE
         DAVIS-MONTHAN IS DAVIS-MONTHAN AIR FORCE BASE
NAS    - NAVAL AIR STATION
         EL CENTRO NAS IS EL CENTRO NAVAL AIR STATION
N/A    - NOT AVAILABLE





USA.gov is the U.S. government's official web portal to all federal, state and local government web resources and services.